Theta_e
306 306 306 306 307 307 308 309 309 308 308 308 308 308 311 310 309 309 311 322 320 319 319 329 337 345 346 347 346 350 359 360 357 355 355 352 351 351 354 354 354 353 352 350 347
305 305 305 306 306 307 307 308 308 309 309 309 309 309 310 311 309 318 320 320 321 317 323 336 337 343 345 345 345 349 359 357 352 352 356 354 352 355 354 352 353 354 353 350 347
305 305 305 305 306 306 307 307 308 308 309 309 309 310 311 311 320 325 322 319 319 315 331 336 337 342 343 344 346 347 355 353 351 351 352 351 352 353 352 354 352 354 352 349 346
304 305 305 305 306 306 307 307 308 308 308 309 309 310 312 311 332 327 322 315 319 316 338 339 339 340 342 344 344 348 348 350 349 349 349 353 347 345 351 355 352 353 351 349 346
304 304 305 305 306 306 307 308 308 308 309 309 309 312 312 320 325 321 321 320 319 316 335 341 338 339 340 340 342 344 347 347 348 350 349 351 350 349 354 351 354 352 350 348 346
304 304 304 305 306 307 307 307 308 309 310 310 312 312 312 328 320 325 327 326 319 319 335 340 337 337 336 337 338 341 341 345 350 350 350 348 350 350 353 349 354 351 350 348 347
304 304 304 305 306 307 309 309 309 309 309 313 312 315 328 325 319 324 327 331 326 319 330 337 335 334 334 334 333 334 340 343 349 349 352 350 352 350 353 354 353 351 350 349 347
303 304 305 304 307 309 310 310 310 309 309 314 319 325 329 317 318 322 327 326 326 321 327 331 332 332 333 331 331 333 337 340 346 351 349 352 356 353 352 354 352 351 350 349 348
303 304 304 304 308 310 310 309 310 311 312 316 322 326 327 317 317 320 327 328 326 327 330 332 331 330 330 333 331 331 336 340 343 351 351 349 355 349 351 353 352 351 350 349 348
303 304 304 304 309 310 312 313 310 312 313 315 318 323 320 318 318 317 319 327 330 327 328 330 329 330 330 332 333 331 333 335 341 349 350 349 353 352 351 350 352 350 350 350 348
307 308 305 304 309 313 315 317 320 322 321 320 321 320 318 317 317 319 320 327 331 329 331 330 332 332 332 330 332 330 330 332 334 346 350 348 350 349 343 347 350 351 350 350 349
309 309 308 304 309 314 315 317 315 316 318 317 316 316 316 317 319 322 325 327 331 330 328 331 332 331 328 331 331 332 331 330 333 342 349 353 351 349 344 344 348 350 349 350 349
309 308 309 305 309 315 315 316 315 315 317 319 316 317 316 316 319 320 324 325 328 329 329 328 327 328 329 329 329 328 329 329 333 338 346 346 354 348 344 346 351 349 349 349 349
309 307 307 305 313 316 317 315 315 314 319 319 316 316 315 316 318 317 318 323 326 328 327 329 328 328 327 328 329 328 328 328 329 334 340 347 357 354 350 351 353 349 348 348 349
307 305 306 304 309 316 316 315 314 314 319 318 317 314 316 317 318 317 317 320 323 326 327 328 329 328 328 327 328 328 329 329 327 328 332 339 346 351 356 356 347 344 348 347 349
306 307 305 315 314 315 315 315 314 317 317 317 317 316 316 317 317 317 318 318 320 323 324 325 326 327 327 327 327 327 327 329 329 327 328 330 338 342 353 349 347 347 345 348 348
310 307 304 309 317 316 315 316 317 317 319 317 317 316 317 318 317 317 319 319 319 320 319 320 323 326 327 327 326 327 327 329 329 328 328 326 329 339 344 350 347 345 345 350 348
310 307 314 311 314 314 316 319 318 320 318 317 317 316 317 318 317 317 317 318 319 320 320 322 322 321 323 327 328 327 327 329 331 331 329 329 327 329 335 341 347 347 347 349 350
311 315 316 316 314 314 317 320 320 319 318 317 317 316 317 317 316 317 317 318 319 321 321 319 319 322 324 323 325 328 329 327 328 330 332 331 329 329 331 336 345 347 347 349 346
312 317 316 315 314 315 318 320 320 317 317 317 316 318 318 318 317 317 317 319 318 319 319 319 320 321 322 324 324 324 327 329 330 332 334 331 335 331 331 333 340 346 344 342 343
316 319 317 317 315 317 320 321 319 316 315 317 317 318 318 318 318 318 318 318 318 318 317 317 318 319 320 323 323 324 325 326 328 331 332 332 333 335 337 333 337 346 345 342 342
319 320 318 317 319 320 321 319 315 318 317 317 317 317 317 318 318 318 318 318 316 316 317 317 316 317 319 321 322 323 324 324 329 331 332 332 332 333 334 334 333 334 338 344 345
320 319 317 318 322 322 319 318 317 318 318 317 318 317 317 317 317 317 317 317 315 315 316 316 317 317 318 319 320 321 322 323 324 325 332 334 332 331 333 336 332 331 330 345 345
319 321 319 317 317 319 320 318 318 314 316 315 316 316 316 317 317 316 316 316 314 314 313 312 314 317 318 319 318 319 320 320 322 324 325 327 331 334 334 334 334 332 332 333 343
318 317 316 318 318 318 318 317 317 316 315 315 316 315 315 316 316 315 315 316 315 315 313 313 313 314 314 314 315 316 317 318 320 323 327 326 328 331 334 335 334 335 335 333 333
317 319 317 315 315 317 316 316 315 315 314 316 315 315 314 314 315 315 315 315 316 316 315 315 314 314 315 316 315 315 316 316 317 320 323 325 329 330 329 332 332 335 336 343 335
316 316 316 314 315 315 314 314 314 313 313 312 312 313 313 313 312 312 312 312 313 316 315 316 318 318 318 316 316 316 315 315 316 317 320 324 326 327 327 330 333 333 335 341 346
Wind_Speed
19 19 20 19 19 17 17 15 15 13 14 14 15 13 11 8 6 7 10 9 17 9 17 12 17 20 14 17 15 4 4 4 5 1 9 18 13 15 8 10 16 14 21 32 37
20 20 21 22 20 19 17 16 13 14 13 16 14 12 10 11 8 13 11 16 15 14 21 18 21 21 22 21 16 10 3 6 10 4 13 22 17 19 15 15 13 15 23 35 38
22 22 22 22 21 20 18 16 14 13 15 15 14 5 10 9 5 6 17 18 18 18 19 17 18 21 19 18 20 16 15 16 13 19 7 8 7 6 3 12 21 26 33 39 39
22 22 22 22 22 20 18 16 15 15 15 14 9 9 9 4 2 5 5 12 18 22 19 20 21 21 18 19 21 18 13 4 3 3 10 10 10 8 14 10 17 29 33 40 38
22 23 22 22 22 21 18 16 16 16 14 12 10 8 4 5 4 6 5 9 18 26 20 20 22 21 18 19 20 17 16 10 7 5 7 9 23 15 23 12 8 29 34 39 37
22 22 23 22 21 20 18 16 15 15 13 10 11 9 5 9 1 2 3 9 17 26 20 21 19 19 18 21 17 18 14 13 7 16 12 10 16 12 4 21 26 30 34 40 38
24 23 23 23 22 19 16 15 14 12 7 7 2 6 9 7 1 3 3 10 17 25 20 20 18 16 19 12 18 18 17 11 11 9 10 18 5 7 26 28 29 29 34 36 36
23 23 23 23 22 17 14 14 11 8 4 2 1 3 7 3 6 3 7 8 14 20 19 15 17 15 19 17 17 12 17 15 15 16 15 18 5 17 31 23 30 30 34 32 31
23 22 22 22 20 14 13 10 2 2 2 6 1 4 7 4 2 6 7 12 14 17 18 16 17 17 15 16 13 14 14 19 15 21 13 14 3 8 7 30 29 29 33 35 33
23 22 20 20 15 12 9 7 2 2 3 3 9 9 9 4 1 5 7 11 16 16 15 16 14 13 13 14 14 16 17 16 17 17 14 15 11 8 16 16 30 27 31 34 34
23 21 20 17 10 7 8 8 4 4 12 11 2 6 3 3 4 5 8 12 16 14 14 22 12 17 20 21 20 20 19 17 17 17 18 17 14 12 22 18 19 30 30 33 37
23 20 18 15 7 3 7 8 5 6 9 11 7 5 2 5 5 5 10 13 15 14 17 13 19 19 18 20 18 19 20 19 12 15 18 17 12 17 9 14 27 29 31 34 36
25 20 16 12 6 1 4 6 7 6 8 15 12 10 6 7 6 9 10 16 15 16 18 20 13 21 20 17 17 18 17 16 17 9 19 13 15 10 6 13 28 25 30 34 38
25 21 15 7 3 7 4 7 8 5 5 15 10 7 7 7 7 5 5 9 16 16 19 21 22 14 20 20 17 18 15 18 19 17 12 18 10 20 23 21 25 13 33 35 38
23 19 12 8 7 8 6 8 6 3 5 12 11 4 4 13 10 9 4 7 13 14 11 18 21 20 18 15 20 17 16 14 16 18 19 21 12 12 29 21 8 27 24 35 38
21 17 5 1 4 2 7 7 1 6 5 6 7 8 10 11 6 4 7 8 9 10 14 15 20 17 19 18 15 16 15 17 17 14 16 21 18 14 13 13 17 28 30 35 39
20 9 2 7 4 7 8 6 6 9 11 8 9 6 11 12 5 6 9 12 9 9 13 14 17 17 14 16 19 15 14 12 13 13 17 18 19 15 14 26 30 26 38 39 40
14 5 7 3 6 9 7 9 7 8 8 8 2 2 5 7 7 4 5 9 10 9 13 13 13 20 16 17 16 21 18 13 16 14 17 20 20 19 23 17 50 49 46 27 45
7 4 5 4 9 4 11 9 3 13 14 4 6 7 9 9 4 3 9 12 10 5 7 10 16 19 11 18 18 20 19 22 23 22 16 17 18 23 21 22 18 20 20 26 16
10 2 2 7 6 5 8 12 7 16 12 5 6 8 9 8 12 5 8 6 0 8 8 9 14 16 16 9 14 20 19 18 15 22 24 18 21 13 20 18 17 19 21 21 24
6 7 3 9 2 8 8 6 11 11 11 10 10 12 8 12 10 5 10 4 2 3 2 11 11 18 17 13 13 13 15 20 19 17 18 16 16 18 14 22 18 20 30 31 23
7 3 11 5 9 7 7 12 4 9 6 4 4 6 7 12 14 9 8 8 11 10 6 14 10 12 17 19 19 17 21 20 14 18 16 15 17 21 10 9 21 23 25 36 41
9 6 10 6 4 7 8 10 9 12 9 8 6 6 7 7 6 8 10 12 4 3 9 9 7 10 15 15 20 13 19 20 21 19 22 16 15 25 17 13 9 19 22 26 44
8 2 8 13 12 11 7 7 7 9 6 8 8 8 8 9 8 6 7 5 10 6 6 4 12 17 14 11 13 12 15 19 21 16 17 20 24 21 16 8 13 10 6 18 34
7 7 5 9 9 9 13 10 6 8 11 5 2 6 8 9 8 9 9 4 7 6 7 6 15 18 21 24 20 18 17 18 20 23 20 19 22 22 9 21 20 28 29 15 19
11 8 7 9 9 5 10 9 9 12 9 11 10 12 10 8 12 15 14 12 9 6 6 15 15 17 20 22 21 21 19 18 20 20 22 18 21 20 21 8 27 29 32 42 11
8 6 7 8 9 7 6 6 7 6 3 5 7 9 7 10 12 15 19 18 17 13 13 10 7 12 18 17 21 21 20 19 20 20 18 18 19 18 15 16 11 20 23 30 35
Wind_Direction
357 352 348 347 345 343 343 336 328 326 321 325 328 326 337 322 266 240 225 213 217 210 189 189 189 196 207 216 210 213 273 326 294 102 188 166 148 154 203 235 186 169 144 155 157
350 348 344 342 343 340 338 338 334 324 320 322 324 319 315 315 273 244 233 221 216 207 182 189 192 198 215 217 228 196 239 349 289 239 181 177 171 153 180 176 164 127 134 153 158
345 343 340 337 337 338 334 332 331 322 317 319 320 306 319 306 292 220 224 234 214 192 185 189 192 199 219 222 219 235 250 206 262 221 117 127 121 41 160 173 157 139 147 157 161
342 340 338 336 334 333 331 325 323 319 316 312 310 305 314 221 332 191 284 222 194 179 189 213 204 206 219 229 234 231 232 129 247 202 176 154 104 337 307 277 154 144 153 159 162
340 337 336 335 332 330 327 325 318 319 317 314 297 300 288 224 253 322 295 212 190 184 203 211 206 211 222 229 234 238 250 225 162 172 189 143 148 175 205 210 136 143 158 161 164
336 334 334 334 332 330 325 323 318 315 317 311 294 281 215 253 133 301 212 211 195 189 200 212 211 215 231 245 249 253 236 243 196 191 184 194 148 166 198 185 149 150 163 166 171
334 333 333 333 333 331 324 320 316 312 316 317 349 153 253 282 335 255 208 203 188 192 200 210 213 229 238 275 265 270 270 252 193 218 197 205 79 287 163 198 145 154 168 171 173
332 332 332 332 333 332 327 319 312 310 285 203 179 325 280 299 230 213 197 182 188 192 208 209 218 246 248 252 263 264 252 256 218 206 222 219 152 173 144 157 155 156 170 171 178
332 331 329 330 333 334 333 331 304 351 83 185 277 277 242 357 159 183 185 187 185 199 220 224 218 232 246 253 256 246 241 230 238 194 192 221 94 168 195 166 157 160 172 173 182
332 332 328 328 332 337 341 332 239 199 240 240 255 263 225 177 192 195 196 191 190 194 207 220 217 236 233 232 230 238 219 251 225 193 200 215 113 129 221 269 156 167 177 177 178
333 333 327 326 330 355 9 331 293 226 211 264 149 255 153 158 186 208 192 187 189 197 207 209 209 219 227 230 243 267 278 231 254 182 192 213 134 152 200 245 253 166 179 183 175
331 332 325 321 315 3 340 330 359 323 297 226 233 246 222 232 178 169 177 187 196 206 211 197 230 231 231 240 231 257 266 275 249 187 193 146 147 190 207 249 261 169 177 187 181
331 331 322 317 307 344 323 329 319 316 262 209 211 216 189 207 245 144 197 217 200 220 217 229 222 218 240 240 248 246 251 262 267 233 186 207 156 167 251 294 286 192 180 189 186
330 328 320 306 300 315 263 329 327 297 268 156 188 202 201 228 207 178 249 277 228 242 222 231 246 236 215 242 239 247 243 254 274 276 254 188 217 192 186 200 244 242 177 190 188
329 327 315 279 282 318 311 322 301 229 267 153 123 124 173 214 113 180 209 240 263 233 247 233 234 238 245 239 238 253 262 258 242 268 275 265 250 205 167 185 176 283 233 191 191
332 329 313 91 302 282 322 307 269 232 231 130 130 179 200 206 198 119 204 222 306 295 282 267 270 235 244 241 239 254 252 272 272 248 245 253 264 246 169 178 172 230 294 192 191
335 336 258 253 281 293 308 266 228 248 137 144 171 179 206 170 172 235 208 201 230 213 233 239 253 265 266 248 238 227 234 239 239 237 245 233 242 247 221 183 177 170 239 207 187
343 11 59 237 311 304 289 251 260 260 98 75 51 95 244 169 224 165 263 250 254 274 284 286 229 215 230 237 246 212 227 230 226 237 243 233 248 231 255 243 179 191 188 206 179
336 6 306 324 302 295 268 237 316 8 18 40 155 261 227 155 290 201 243 270 299 59 312 298 255 297 265 214 226 247 225 238 262 269 258 255 227 229 245 245 201 160 168 173 234
351 305 116 343 309 272 255 262 66 37 3 5 309 325 283 210 175 244 254 47 19 52 347 308 306 290 285 211 258 231 257 231 230 249 260 265 265 237 207 237 219 145 157 189 233
329 242 39 341 285 248 251 44 51 62 14 356 342 324 330 302 334 297 303 41 159 271 115 308 287 278 291 266 234 231 248 259 270 231 252 256 258 271 213 206 216 185 177 175 178
285 324 353 355 248 241 49 21 347 19 16 2 331 305 307 319 315 307 288 298 37 359 314 320 311 281 266 275 270 227 265 253 248 253 266 257 255 260 343 251 206 228 221 174 173
306 43 19 340 305 351 74 77 31 7 18 8 333 354 344 311 299 283 293 293 78 346 11 340 286 275 264 265 267 249 243 254 267 252 255 255 241 263 288 331 254 205 226 168 173
301 342 64 41 24 352 19 37 68 66 53 355 322 318 323 296 284 300 319 303 10 305 35 317 283 283 278 280 338 305 246 259 271 256 252 250 266 276 257 304 327 348 309 242 178
354 49 354 13 23 45 13 29 40 26 1 10 30 4 352 313 298 274 249 305 301 270 247 251 263 272 278 284 287 282 283 285 270 259 259 249 254 262 21 355 340 349 349 267 231
9 357 62 23 20 27 39 56 30 11 357 0 346 355 328 305 317 319 321 302 275 268 278 284 256 267 274 284 276 264 263 264 275 281 277 263 277 291 332 57 294 332 357 342 255
32 11 349 28 44 43 42 22 13 35 356 355 346 325 317 350 326 296 292 285 266 258 276 242 250 263 273 275 278 268 255 260 263 263 270 267 264 282 302 301 286 320 347 336 343